| time (UTC) | temp F | wind direction | speed MPH | gust MPH | rain 1hr in | rain 24hr in | rain mn in | humidity % | barometer mb |
| 20260506062022 | 71 | 185 | 0.0 | 7.0 | 0.00 | 0.00 | 0.00 | 63 | 1010.1 |
| 20260506061016 | 71 | 98 | 0.0 | 6.0 | 0.00 | 0.00 | 0.00 | 62 | 1010.1 |
| 20260506051059 | 73 | 222 | 1.0 | 9.0 | 0.00 | 0.00 | 0.00 | 58 | 1010.5 |
| 20260506045042 | 73 | 163 | 1.0 | 8.0 | 0.00 | 0.00 | 0.00 | 56 | 1010.5 |
| 20260506044026 | 73 | 153 | 1.0 | 8.0 | 0.00 | 0.00 | 0.00 | 56 | 1010.5 |
| 20260506043020 | 73 | 188 | 1.0 | 12.0 | 0.00 | 0.00 | 0.00 | 56 | 1010.5 |
| 20260506042034 | 73 | 187 | 1.0 | 7.0 | 0.00 | 0.00 | 0.00 | 55 | 1010.5 |
| 20260506041023 | 73 | 172 | 1.0 | 10.0 | 0.00 | 0.00 | 0.00 | 55 | 1010.5 |
| 20260506040042 | 73 | 260 | 1.0 | 5.0 | 0.00 | 0.00 | 0.00 | 55 | 1010.5 |
| 20260506035026 | 73 | 194 | 1.0 | 12.0 | 0.00 | 0.00 | 0.00 | 54 | 1010.6 |
| 20260506034022 | 73 | 130 | 0.0 | 4.0 | 0.00 | 0.00 | 0.00 | 54 | 1010.5 |
| 20260506033017 | 73 | 197 | 2.0 | 8.0 | 0.00 | 0.00 | 0.00 | 54 | 1010.5 |
| 20260506032030 | 73 | 176 | 1.0 | 8.0 | 0.00 | 0.00 | 0.00 | 53 | 1010.4 |
| 20260506031015 | 72 | 167 | 2.0 | 8.0 | 0.00 | 0.00 | 0.00 | 53 | 1010.4 |
| 20260506030032 | 72 | 165 | 1.0 | 11.0 | 0.00 | 0.00 | 0.00 | 54 | 1010.4 |
| 20260506025017 | 71 | 153 | 0.0 | 4.0 | 0.00 | 0.00 | 0.00 | 53 | 1010.4 |
| 20260506024040 | 71 | 189 | 0.0 | 8.0 | 0.00 | 0.00 | 0.00 | 52 | 1010.6 |
| 20260506023025 | 72 | 115 | 0.0 | 2.0 | 0.00 | 0.00 | 0.00 | 52 | 1010.6 |
| 20260506022019 | 72 | 114 | 1.0 | 3.0 | 0.00 | 0.00 | 0.00 | 51 | 1010.7 |
| 20260506021053 | 73 | 116 | 0.0 | 0.0 | 0.00 | 0.00 | 0.00 | 51 | 1010.8 |
| 20260506020020 | 73 | 116 | 0.0 | 3.0 | 0.00 | 0.00 | 0.00 | 49 | 1010.6 |
| 20260506015014 | 74 | 123 | 1.0 | 4.0 | 0.00 | 0.00 | 0.00 | 45 | 1010.5 |
| 20260506014029 | 74 | 123 | 0.0 | 4.0 | 0.00 | 0.00 | 0.00 | 45 | 1010.4 |
| 20260506013023 | 75 | 122 | 0.0 | 3.0 | 0.00 | 0.00 | 0.00 | 47 | 1010.2 |
| 20260506012017 | 75 | 122 | 0.0 | 2.0 | 0.00 | 0.00 | 0.00 | 46 | 1010.2 |
| 20260506011031 | 75 | 123 | 0.0 | 4.0 | 0.00 | 0.00 | 0.00 | 42 | 1010.1 |
| 20260506010018 | 75 | 147 | 1.0 | 4.0 | 0.00 | 0.00 | 0.00 | 42 | 1009.9 |
| 20260506005032 | 76 | 151 | 0.0 | 2.0 | 0.00 | 0.00 | 0.00 | 42 | 1009.8 |
| 20260506004016 | 77 | 140 | 0.0 | 3.0 | 0.00 | 0.00 | 0.00 | 42 | 1009.6 |
| 20260506003031 | 78 | 124 | 0.0 | 1.0 | 0.00 | 0.00 | 0.00 | 43 | 1009.6 |
| 20260506002025 | 79 | 124 | 0.0 | 2.0 | 0.00 | 0.00 | 0.00 | 37 | 1009.5 |
| 20260506001019 | 79 | 169 | 0.0 | 9.0 | 0.00 | 0.00 | 0.00 | 36 | 1009.5 |
| 20260506000028 | 79 | 186 | 0.0 | 3.0 | 0.00 | 0.00 | 0.00 | 36 | 1009.3 |
| 20260505235022 | 80 | 186 | 0.0 | 7.0 | 0.00 | 0.00 | 0.00 | 35 | 1009.2 |
| 20260505234016 | 80 | 117 | 0.0 | 5.0 | 0.00 | 0.00 | 0.00 | 35 | 1009.1 |
| 20260505233031 | 80 | 182 | 0.0 | 9.0 | 0.00 | 0.00 | 0.00 | 35 | 1009.0 |
| 20260505232042 | 80 | 142 | 0.0 | 9.0 | 0.00 | 0.00 | 0.00 | 34 | 1009.1 |
| 20260505231036 | 81 | 132 | 0.0 | 8.0 | 0.00 | 0.00 | 0.00 | 34 | 1009.1 |
| 20260505230025 | 81 | 196 | 0.0 | 8.0 | 0.00 | 0.00 | 0.00 | 34 | 1009.2 |
| 20260505225036 | 81 | 180 | 1.0 | 7.0 | 0.00 | 0.00 | 0.00 | 33 | 1009.1 |
| 20260505224028 | 82 | 161 | 1.0 | 6.0 | 0.00 | 0.00 | 0.00 | 33 | 1009.2 |
| 20260505223013 | 82 | 172 | 0.0 | 11.0 | 0.00 | 0.00 | 0.00 | 32 | 1009.2 |
| 20260505222036 | 82 | 157 | 2.0 | 10.0 | 0.00 | 0.00 | 0.00 | 31 | 1009.0 |
| 20260505221021 | 83 | 220 | 2.0 | 10.0 | 0.00 | 0.00 | 0.00 | 31 | 1009.2 |
| 20260505220038 | 84 | 216 | 1.0 | 12.0 | 0.00 | 0.00 | 0.00 | 31 | 1009.2 |
| 20260505215031 | 84 | 159 | 1.0 | 14.0 | 0.00 | 0.00 | 0.00 | 32 | 1009.1 |
| 20260505214016 | 84 | 182 | 0.0 | 13.0 | 0.00 | 0.00 | 0.00 | 31 | 1009.2 |
| 20260505213029 | 85 | 281 | 0.0 | 15.0 | 0.00 | 0.00 | 0.00 | 32 | 1008.9 |
| 20260505212023 | 85 | 150 | 2.0 | 15.0 | 0.00 | 0.00 | 0.00 | 33 | 1008.8 |
| 20260505211036 | 85 | 255 | 4.0 | 14.0 | 0.00 | 0.00 | 0.00 | 30 | 1008.7 |
| 20260505210022 | 85 | 277 | 1.0 | 11.0 | 0.00 | 0.00 | 0.00 | 30 | 1008.8 |
| 20260505205044 | 85 | 140 | 3.0 | 13.0 | 0.00 | 0.00 | 0.00 | 31 | 1008.8 |
| 20260505204038 | 86 | 233 | 3.0 | 12.0 | 0.00 | 0.00 | 0.00 | 31 | 1008.8 |
| 20260505203022 | 86 | 264 | 2.0 | 9.0 | 0.00 | 0.00 | 0.00 | 32 | 1008.8 |
| 20260505202017 | 85 | 122 | 2.0 | 12.0 | 0.00 | 0.00 | 0.00 | 31 | 1008.8 |
| 20260505201031 | 86 | 325 | 4.0 | 14.0 | 0.00 | 0.00 | 0.00 | 30 | 1009.0 |
| 20260505200018 | 86 | 159 | 2.0 | 15.0 | 0.00 | 0.00 | 0.00 | 31 | 1009.1 |
| 20260505195048 | 86 | 234 | 3.0 | 15.0 | 0.00 | 0.00 | 0.00 | 32 | 1009.2 |
| 20260505194022 | 86 | 153 | 1.0 | 10.0 | 0.00 | 0.00 | 0.00 | 32 | 1009.2 |
| 20260505193015 | 86 | 145 | 1.0 | 13.0 | 0.00 | 0.00 | 0.00 | 34 | 1009.4 |
| 20260505192029 | 86 | 161 | 2.0 | 11.0 | 0.00 | 0.00 | 0.00 | 33 | 1009.5 |
| 20260505191023 | 86 | 132 | 2.0 | 8.0 | 0.00 | 0.00 | 0.00 | 32 | 1009.5 |
| 20260505190031 | 86 | 165 | 2.0 | 12.0 | 0.00 | 0.00 | 0.00 | 34 | 1009.6 |
| 20260505185045 | 86 | 209 | 2.0 | 13.0 | 0.00 | 0.00 | 0.00 | 33 | 1009.9 |
| 20260505184018 | 86 | 300 | 2.0 | 12.0 | 0.00 | 0.00 | 0.00 | 33 | 1010.0 |
| 20260505183053 | 86 | 245 | 5.0 | 16.0 | 0.00 | 0.00 | 0.00 | 31 | 1010.4 |
| 20260505182026 | 86 | 288 | 1.0 | 7.0 | 0.00 | 0.00 | 0.00 | 33 | 1010.5 |
| 20260505181020 | 85 | 175 | 1.0 | 13.0 | 0.00 | 0.00 | 0.00 | 34 | 1010.6 |
| 20260505180027 | 85 | 252 | 3.0 | 10.0 | 0.00 | 0.00 | 0.00 | 33 | 1010.7 |
| 20260505175042 | 84 | 166 | 3.0 | 9.0 | 0.00 | 0.00 | 0.00 | 35 | 1010.7 |
| 20260505174035 | 84 | 168 | 1.0 | 8.0 | 0.00 | 0.00 | 0.00 | 38 | 1010.7 |
| 20260505173029 | 84 | 178 | 2.0 | 9.0 | 0.00 | 0.00 | 0.00 | 39 | 1010.9 |
| 20260505172022 | 83 | 169 | 2.0 | 8.0 | 0.00 | 0.00 | 0.00 | 39 | 1011.1 |
| 20260505171017 | 84 | 202 | 3.0 | 11.0 | 0.00 | 0.00 | 0.00 | 37 | 1011.1 |
| 20260505170046 | 84 | 277 | 1.0 | 7.0 | 0.00 | 0.00 | 0.00 | 39 | 1011.1 |
| 20260505165020 | 84 | 163 | 1.0 | 10.0 | 0.00 | 0.00 | 0.00 | 41 | 1011.3 |
| 20260505164014 | 83 | 230 | 2.0 | 7.0 | 0.00 | 0.00 | 0.00 | 41 | 1011.5 |
| 20260505163022 | 83 | 222 | 2.0 | 14.0 | 0.00 | 0.00 | 0.00 | 42 | 1011.6 |
| 20260505162036 | 84 | 248 | 3.0 | 12.0 | 0.00 | 0.00 | 0.00 | 40 | 1011.6 |
| 20260505161051 | 83 | 244 | 1.0 | 11.0 | 0.00 | 0.00 | 0.00 | 42 | 1011.8 |
| 20260505153014 | 83 | 242 | 1.0 | 4.0 | 0.00 | 0.00 | 0.00 | 49 | 1011.9 |
| 20260505152028 | 81 | 257 | 1.0 | 7.0 | 0.00 | 0.00 | 0.00 | 44 | 1011.8 |
| 20260505151012 | 80 | 250 | 2.0 | 7.0 | 0.00 | 0.00 | 0.00 | 45 | 1011.8 |
| 20260505125020 | 66 | 236 | 1.0 | 4.0 | 0.00 | 0.00 | 0.00 | 61 | 1012.3 |
| 20260505124033 | 65 | 275 | 1.0 | 7.0 | 0.00 | 0.00 | 0.00 | 62 | 1012.2 |
| 20260505123026 | 65 | 163 | 0.0 | 4.0 | 0.00 | 0.00 | 0.00 | 62 | 1012.2 |
| 20260505122020 | 64 | 292 | 1.0 | 7.0 | 0.00 | 0.00 | 0.00 | 63 | 1012.1 |
| 20260505121034 | 64 | 237 | 0.0 | 7.0 | 0.00 | 0.00 | 0.00 | 63 | 1012.1 |
| 20260505120022 | 64 | 267 | 0.0 | 3.0 | 0.00 | 0.00 | 0.00 | 63 | 1012.0 |
| 20260505115034 | 63 | 252 | 0.0 | 5.0 | 0.00 | 0.00 | 0.00 | 63 | 1012.0 |
| 20260505114029 | 63 | 260 | 2.0 | 7.0 | 0.00 | 0.00 | 0.00 | 63 | 1012.1 |
| 20260505113043 | 63 | 250 | 0.0 | 8.0 | 0.00 | 0.00 | 0.00 | 63 | 1011.9 |
| 20260505112035 | 62 | 233 | 0.0 | 9.0 | 0.00 | 0.00 | 0.00 | 64 | 1011.9 |
| 20260505111049 | 62 | 274 | 1.0 | 4.0 | 0.00 | 0.00 | 0.00 | 64 | 1011.8 |
| 20260505102032 | 61 | 209 | 0.0 | 2.0 | 0.00 | 0.00 | 0.00 | 63 | 1011.3 |
| 20260505101017 | 62 | 209 | 0.0 | 3.0 | 0.00 | 0.00 | 0.00 | 63 | 1011.2 |
| 20260505100035 | 62 | 254 | 0.0 | 4.0 | 0.00 | 0.00 | 0.00 | 63 | 1011.0 |
| 20260505095023 | 62 | 254 | 0.0 | 4.0 | 0.00 | 0.00 | 0.00 | 63 | 1010.9 |
| 20260505094018 | 62 | 232 | 0.0 | 7.0 | 0.00 | 0.00 | 0.00 | 63 | 1010.9 |
| 20260505093031 | 62 | 246 | 0.0 | 5.0 | 0.00 | 0.00 | 0.00 | 63 | 1010.9 |
| 20260505092025 | 62 | 265 | 1.0 | 8.0 | 0.00 | 0.00 | 0.00 | 63 | 1010.8 |
| 20260505091019 | 62 | 242 | 2.0 | 7.0 | 0.00 | 0.00 | 0.00 | 63 | 1010.9 |
| 20260505090022 | 62 | 253 | 1.0 | 9.0 | 0.00 | 0.00 | 0.00 | 63 | 1010.8 |
| 20260505085036 | 62 | 245 | 0.0 | 7.0 | 0.00 | 0.00 | 0.00 | 64 | 1010.8 |
| 20260505084030 | 62 | 217 | 1.0 | 3.0 | 0.00 | 0.00 | 0.00 | 64 | 1010.8 |
| 20260505083014 | 62 | 271 | 0.0 | 2.0 | 0.00 | 0.00 | 0.00 | 64 | 1010.8 |
| 20260505082029 | 61 | 263 | 0.0 | 4.0 | 0.00 | 0.00 | 0.00 | 65 | 1010.8 |
| 20260505081023 | 61 | 264 | 0.0 | 6.0 | 0.00 | 0.00 | 0.00 | 65 | 1010.8 |
| 20260505080029 | 61 | 189 | 0.0 | 5.0 | 0.00 | 0.00 | 0.00 | 65 | 1010.7 |
| 20260505075042 | 61 | 217 | 0.0 | 4.0 | 0.00 | 0.00 | 0.00 | 66 | 1010.8 |
| 20260505074014 | 61 | 190 | 0.0 | 3.0 | 0.00 | 0.00 | 0.00 | 66 | 1010.8 |
| 20260505073029 | 61 | 180 | 0.0 | 2.0 | 0.00 | 0.00 | 0.00 | 66 | 1010.8 |
| 20260505072023 | 61 | 180 | 0.0 | 3.0 | 0.00 | 0.00 | 0.00 | 66 | 1010.7 |
| 20260505071018 | 61 | 182 | 0.0 | 2.0 | 0.00 | 0.00 | 0.00 | 66 | 1010.8 |
| 20260505070025 | 61 | 188 | 0.0 | 3.0 | 0.00 | 0.00 | 0.00 | 66 | 1010.8 |